Location: C.E.K. Mees Observatory
(42.7003°N, 77.4088°W)
Time: 06:50:33
(UTC-04:00)

Vanguard 2 Rocket - Visible Passes

Search period start: 16 July 2018 00:00
Search period end: 26 July 2018 00:00
Orbit: 553 x 3327 km, 32.9° (Epoch: 15 July)

Date Brightness Start Highest point End Pass type
(mag) Time Alt. Az. Time Alt. Az. Time Alt. Az.
16 Jul 8.6 03:40:57 19° S 03:44:24 25° SE 03:52:52 10° E visible
17 Jul 9.0 02:44:48 15° SE 02:45:27 15° SE 02:50:01 10° ESE visible
17 Jul 8.6 04:50:36 11° SW 04:57:28 42° SSE 05:09:30 10° E visible
18 Jul 8.3 03:54:26 21° SSW 03:58:00 32° SSE 04:07:18 10° E visible
19 Jul 8.5 02:58:17 21° SSE 02:58:55 21° SE 03:05:12 10° E visible
19 Jul 8.5 05:04:22 10° WSW 05:11:22 46° SSE 05:23:30 10° ESE visible
20 Jul 9.2 02:02:08 10° ESE 02:02:08 10° ESE 02:02:22 10° ESE visible
20 Jul 8.2 04:07:57 21° SSW 04:11:48 38° SSE 04:21:30 10° E visible
21 Jul 8.1 03:11:49 27° SSE 03:12:35 28° SSE 03:19:45 10° E visible
22 Jul 8.8 02:15:42 15° SE 02:15:42 15° SE 02:18:03 10° ESE visible
22 Jul 8.1 04:21:31 19° SW 04:25:47 41° SSE 04:35:33 10° ESE visible
23 Jul 7.7 03:25:26 31° S 03:26:28 33° SSE 03:34:00 10° ESE visible
24 Jul 8.5 02:29:22 20° SE 02:29:22 20° SE 02:32:45 10° ESE visible
24 Jul 8.0 04:35:11 16° WSW 04:39:51 41° S 04:49:26 10° ESE visible
25 Jul 7.5 03:39:09 32° SSW 03:40:29 36° S 03:48:05 10° ESE visible
